Regional Weather Roundup
Issued by NWS

Home | Current Version | Previous Version | Text Only | Print | Product List | Glossary On
Versions: 1 2 3 4 5 6 7 8 9 10 11 12 13 14 15 16 17 18 19 20 21 22 23 24 25 26 27 28 29 30 31 32 33 34 35 36 37 38 39 40 41 42 43 44 45 46 47 48 49 50
000
ASUS44 KBMX 050910
RWRAL

ALABAMA REGIONAL WEATHER ROUNDUP
NATIONAL WEATHER SERVICE BIRMINGHAM AL
400 AM CDT WED AUG 05 2015

NOTE: "FAIR" INDICATES FEW OR NO CLOUDS BELOW 12,000 FEET
WITH NO SIGNIFICANT WEATHER AND/OR OBSTRUCTIONS TO VISIBILITY.

THE REMARK "TC" DENOTES TEMPERATURE IN DEGREES CELSIUS.

ALZ001>011-014-016>018-020-051000-
NORTH ALABAMA

CITY           SKY/WX    TMP DP  RH WIND       PRES   REMARKS
MUSCLE SHOALS  MOCLDY    75  71  87 CALM      30.01S
HUNTSVILLE     CLOUDY    76  71  85 CALM      30.00S
DECATUR        MOCLDY    74  70  87 CALM      30.00S
HALEYVILLE     FAIR      72  70  93 CALM      30.05R
GADSDEN        CLEAR     70  63  78 CALM      30.00S
$$

ALZ012-013-022-023-030>036-040>044-051000-
WEST CENTRAL ALABAMA

CITY           SKY/WX    TMP DP  RH WIND       PRES   REMARKS
TUSCALOOSA     CLEAR     76  70  82 SE5       30.00S
$$

ALZ015-024>027-033>036-040>044-051000-
CENTRAL ALABAMA

CITY           SKY/WX    TMP DP  RH WIND       PRES   REMARKS
BIRMINGHAM     CLEAR     74  69  85 CALM      30.03S
MONTGOMERY     CLEAR     74  70  87 CALM      30.02S
SHELBY CO ARPT CLEAR     75  67  76 S3        30.02S
MAXWELL AFB    NOT AVBL
GREENVILLE     NOT AVBL
$$

ALZ019-021-028-029-037-038-045>048-051000-
EAST CENTRAL ALABAMA

CITY           SKY/WX    TMP DP  RH WIND       PRES   REMARKS
ANNISTON       CLEAR     69  66  90 SW3       30.02R
ALEXANDER CITY CLEAR     70  66  87 CALM      30.04R
AUBURN           N/A    N/A N/A N/A MISG        N/A
$$

ALZ051>064-051000-
SOUTHWEST ALABAMA

CITY           SKY/WX    TMP DP  RH WIND       PRES   REMARKS
MOBILE         PTCLDY    79  76  90 S10       30.02R
BROOKLEY FIELD HVY RAIN  77  75  93 SW5       30.03R FOG
EVERGREEN      CLEAR     71  69  93 CALM      30.03S
$$

ALZ049-050-065>069-051000-
SOUTHEAST ALABAMA

CITY           SKY/WX    TMP DP  RH WIND       PRES   REMARKS
DOTHAN         CLEAR     76  74  93 S5        30.07R
OZARK          CLEAR     75  74  98 SE2       30.03S
TROY           CLEAR     74  71  91 CALM      30.04R
EUFAULA        FAIR      74  72  93 CALM      30.02S
$$


USA.gov is the U.S. government's official web portal to all federal, state and local government web resources and services.